Location: ??????????
(48.4699°N, 37.9573°E)
Time: 12:46:41
(UTC+00:00)

OPS 8737 - Pass Details

Date: 20 January 2021
Orbit: 354 x 1719 km, 63.3° (Epoch: 10 February)

Event Time Altitude Azimuth Distance (km) Brightness Sun altitude
Rises 15:05:10 0° 321° (NW) 2,236 8.2 -9.4°
Reaches altitude 10° 15:07:01 10° 325° (NW) 1,443 7.2 -9.7°
Maximum altitude 15:10:05 61° 47° (NE) 518 4.4 -10.2°
Drops below altitude 10° 15:14:00 10° 129° (SE) 1,837 7.2 -10.8°
Sets 15:16:37 0° 133° (SE) 2,940 8.2 -11.2°
